Location: Agendoh
(31.0664°N, 8.9343°W)
Time: 07:35:40
(UTC+00:00)

Cosmos 1174 - Visible Passes

Search period start: 26 June 2022 00:00
Search period end: 06 July 2022 00:00
Orbit: 361 x 1144 km, 66.1° (Epoch: 25 June)

Date Brightness Start Highest point End Pass type
(mag) Time Alt. Az. Time Alt. Az. Time Alt. Az.
26 Jun 5.5 02:58:41 35° SE 03:00:05 41° ESE 03:06:08 10° NE visible
26 Jun 6.1 04:38:38 12° WSW 04:43:01 28° NW 04:48:44 10° N visible
27 Jun 6.4 02:17:44 23° ESE 02:18:10 23° ESE 02:23:01 10° NE visible
27 Jun 5.4 03:57:40 27° WSW 04:00:23 45° WNW 04:06:52 10° NNE visible
28 Jun 7.1 01:36:44 12° E 01:36:44 12° E 01:38:39 10° ENE visible
28 Jun 4.8 03:16:40 56° SW 03:17:57 76° WNW 03:24:42 10° NNE visible
28 Jun 7.0 04:59:19 10° WNW 05:02:05 13° NW 05:05:03 10° NNW visible
29 Jun 4.9 02:35:37 63° ESE 02:35:43 64° ESE 02:42:18 10° NNE visible
29 Jun 6.6 04:15:32 13° W 04:19:11 20° NW 04:24:06 10° N visible
30 Jun 6.0 01:54:31 34° E 01:54:31 34° E 01:59:33 10° NE visible
30 Jun 5.9 03:34:26 26° W 03:36:25 32° NW 03:42:27 10° N visible
01 Jul 6.9 01:13:24 18° E 01:13:24 18° E 01:16:14 10° ENE visible
01 Jul 5.2 02:53:19 51° WNW 02:53:49 52° WNW 03:00:29 10° NNE visible
02 Jul 5.0 02:12:07 72° NNE 02:12:07 72° NNE 02:18:15 10° NNE visible
02 Jul 6.9 03:52:03 10° WNW 03:55:23 15° NW 03:59:07 10° NNW visible
03 Jul 5.8 01:30:55 42° ENE 01:30:55 42° ENE 01:35:45 10° NE visible
03 Jul 6.4 03:10:49 21° WNW 03:12:31 23° NW 03:17:51 10° N visible
04 Jul 6.6 00:49:39 24° ENE 00:49:39 24° ENE 00:52:53 10° NE visible
04 Jul 5.8 02:29:33 37° WNW 02:29:47 37° NW 02:36:06 10° N visible
05 Jul 7.2 00:08:21 13° ENE 00:08:21 13° ENE 00:09:20 10° ENE visible
05 Jul 5.5 01:48:15 53° NNW 01:48:15 53° NNW 01:54:02 10° NNE visible
05 Jul 7.3 03:30:10 10° NW 03:31:39 11° NW 03:33:10 10° NNW visible
